When you browse on this site, cookies collect data to enhance your experience and personalize the content and advertising you see.
Visit our Privacy Policy to learn more. By continuing to use the site, you agree to this use of cookies and data.
  • In Hungary
  • List of Countries
  • For 7 days
  • Water Temperature
  • Satellite Maps
  • Weather Map
  • News
  • Weather Widgets
  • user-avatar
    Login

    Hourly Weather Kingston

    Today, 21 February, Thursday

    Time Temperature Precipitation Wind Pressure Humidity
    00:00 +20°C° 0 mm 2 mps 707 mmHg 85%
    01:00 +20°C° 0 mm 2 mps 707 mmHg 86%
    02:00 +19°C° 0 mm 2 mps 707 mmHg 85%
    03:00 +19°C° 0 mm 2 mps 706 mmHg 85%
    04:00 +19°C° 0 mm 2 mps 706 mmHg 84%
    05:00 +19°C° 0 mm 2 mps 706 mmHg 84%
    06:00 +20°C° 0 mm 2 mps 707 mmHg 83%
    07:00 +20°C° 0 mm 2 mps 707 mmHg 82%
    08:00 +22°C° 0 mm 3 mps 708 mmHg 75%
    09:00 +25°C° 0 mm 4 mps 708 mmHg 68%
    10:00 +26°C° 0 mm 5 mps 709 mmHg 61%
    11:00 +26°C° 0.2 mm 4 mps 709 mmHg 63%
    12:00 +26°C° 0.2 mm 4 mps 709 mmHg 66%
    13:00 +26°C° 0.2 mm 4 mps 708 mmHg 69%
    14:00 +25°C° 0.3 mm 4 mps 708 mmHg 71%
    15:00 +25°C° 0.3 mm 4 mps 707 mmHg 73%
    16:00 +23°C° 0.3 mm 4 mps 707 mmHg 76%
    17:00 +24°C° 0.2 mm 3 mps 707 mmHg 80%
    18:00 +22°C° 0.2 mm 3 mps 707 mmHg 84%
    19:00 +21°C° 0.2 mm 2 mps 707 mmHg 88%
    20:00 +21°C° 0.1 mm 2 mps 707 mmHg 88%
    21:00 +21°C° 0.1 mm 2 mps 708 mmHg 88%
    22:00 +20°C° 0.1 mm 2 mps 708 mmHg 88%
    23:00 +20°C° 0 mm 2 mps 708 mmHg 88%

    Tomorrow, 22 February, Friday

    Time Temperature Precipitation Wind Pressure Humidity
    00:00 +20°C° 0 mm 2 mps 708 mmHg 88%
    01:00 +19°C° 0 mm 2 mps 708 mmHg 87%
    02:00 +19°C° 0 mm 2 mps 707 mmHg 88%
    03:00 +19°C° 0 mm 2 mps 707 mmHg 88%
    04:00 +19°C° 0 mm 2 mps 707 mmHg 88%
    05:00 +19°C° 0 mm 2 mps 707 mmHg 88%
    06:00 +19°C° 0 mm 2 mps 707 mmHg 88%
    07:00 +19°C° 0 mm 2 mps 707 mmHg 88%
    08:00 +23°C° 0 mm 2 mps 708 mmHg 76%
    09:00 +25°C° 0 mm 3 mps 709 mmHg 65%
    10:00 +27°C° 0 mm 3 mps 710 mmHg 53%
    11:00 +28°C° 0 mm 3 mps 710 mmHg 51%
    12:00 +28°C° 0 mm 4 mps 710 mmHg 49%
    13:00 +29°C° 0 mm 4 mps 709 mmHg 46%
    14:00 +29°C° 0 mm 4 mps 709 mmHg 49%
    15:00 +28°C° 0 mm 4 mps 708 mmHg 52%
    16:00 +27°C° 0 mm 4 mps 708 mmHg 55%
    17:00 +26°C° 0 mm 4 mps 708 mmHg 62%
    18:00 +24°C° 0 mm 3 mps 708 mmHg 69%
    19:00 +23°C° 0 mm 2 mps 708 mmHg 77%
    20:00 +21°C° 0 mm 2 mps 708 mmHg 79%
    21:00 +21°C° 0 mm 2 mps 709 mmHg 81%
    22:00 +21°C° 0 mm 2 mps 709 mmHg 83%
    23:00 +21°C° 0 mm 2 mps 709 mmHg 84%

    Day after tomorrow, 23 February, Saturday

    Time Temperature Precipitation Wind Pressure Humidity
    00:00 +20°C° 0 mm 2 mps 708 mmHg 85%
    01:00 +20°C° 0 mm 2 mps 708 mmHg 86%
    02:00 +20°C° 0 mm 2 mps 708 mmHg 86%
    03:00 +20°C° 0 mm 2 mps 707 mmHg 86%
    04:00 +20°C° 0 mm 2 mps 707 mmHg 86%
    05:00 +20°C° 0 mm 2 mps 707 mmHg 86%
    06:00 +20°C° 0 mm 2 mps 708 mmHg 85%
    07:00 +20°C° 0 mm 2 mps 708 mmHg 85%
    08:00 +22°C° 0.1 mm 3 mps 709 mmHg 77%
    09:00 +25°C° 0.1 mm 4 mps 710 mmHg 70%
    10:00 +27°C° 0.1 mm 4 mps 710 mmHg 62%
    11:00 +28°C° 0.1 mm 4 mps 710 mmHg 60%
    12:00 +28°C° 0.1 mm 4 mps 710 mmHg 57%
    13:00 +29°C° 0.1 mm 4 mps 709 mmHg 55%
    14:00 +28°C° 0.1 mm 4 mps 709 mmHg 58%
    15:00 +27°C° 0.1 mm 4 mps 708 mmHg 62%
    16:00 +27°C° 0.1 mm 4 mps 708 mmHg 65%
    17:00 +25°C° 0 mm 3 mps 708 mmHg 71%
    18:00 +24°C° 0 mm 3 mps 708 mmHg 76%
    19:00 +23°C° 0 mm 2 mps 708 mmHg 81%
    20:00 +21°C° 0 mm 2 mps 708 mmHg 83%
    21:00 +21°C° 0 mm 2 mps 708 mmHg 84%
    22:00 +20°C° 0 mm 2 mps 709 mmHg 86%
    23:00 +20°C° 0 mm 2 mps 708 mmHg 87%

    24 February, Sunday

    Time Temperature Precipitation Wind Pressure Humidity
    00:00 +20°C° 0 mm 2 mps 708 mmHg 87%
    01:00 +20°C° 0 mm 2 mps 708 mmHg 88%
    02:00 +20°C° 0 mm 2 mps 707 mmHg 89%
    03:00 +20°C° 0 mm 2 mps 707 mmHg 90%
    04:00 +19°C° 0 mm 2 mps 707 mmHg 90%
    05:00 +20°C° 0 mm 2 mps 707 mmHg 90%
    06:00 +20°C° 0 mm 2 mps 708 mmHg 89%
    07:00 +20°C° 0 mm 2 mps 708 mmHg 89%
    08:00 +23°C° 0 mm 2 mps 709 mmHg 79%
    09:00 +25°C° 0 mm 2 mps 709 mmHg 70%
    10:00 +27°C° 0 mm 3 mps 710 mmHg 61%
    11:00 +27°C° 0 mm 3 mps 710 mmHg 59%
    12:00 +28°C° 0 mm 3 mps 709 mmHg 58%
    13:00 +28°C° 0 mm 3 mps 709 mmHg 56%
    14:00 +28°C° 0 mm 3 mps 709 mmHg 57%
    15:00 +28°C° 0 mm 3 mps 708 mmHg 58%
    16:00 +27°C° 0 mm 3 mps 708 mmHg 59%
    17:00 +26°C° 0 mm 3 mps 708 mmHg 65%
    18:00 +24°C° 0 mm 2 mps 708 mmHg 71%
    19:00 +23°C° 0 mm 2 mps 708 mmHg 78%
    20:00 +21°C° 0 mm 2 mps 708 mmHg 80%
    21:00 +21°C° 0 mm 2 mps 708 mmHg 83%
    22:00 +21°C° 0 mm 1 mps 708 mmHg 86%
    23:00 +21°C° 0 mm 1 mps 708 mmHg 87%

    25 February, Monday

    Time Temperature Precipitation Wind Pressure Humidity
    00:00 +21°C° 0 mm 1 mps 708 mmHg 88%
    01:00 +21°C° 0 mm 1 mps 707 mmHg 89%
    02:00 +20°C° 0 mm 2 mps 707 mmHg 89%
    03:00 +19°C° 0 mm 2 mps 707 mmHg 90%
    04:00 +19°C° 0 mm 2 mps 707 mmHg 90%
    05:00 +20°C° 0 mm 2 mps 707 mmHg 90%
    06:00 +20°C° 0 mm 2 mps 708 mmHg 89%
    07:00 +20°C° 0 mm 2 mps 708 mmHg 88%
    08:00 +23°C° 0 mm 2 mps 709 mmHg 81%
    09:00 +24°C° 0 mm 2 mps 709 mmHg 73%
    10:00 +26°C° 0 mm 2 mps 710 mmHg 66%
    11:00 +27°C° 0.1 mm 2 mps 709 mmHg 64%
    12:00 +27°C° 0.1 mm 3 mps 709 mmHg 63%
    13:00 +27°C° 0.1 mm 3 mps 709 mmHg 62%
    14:00 +27°C° 0.1 mm 3 mps 708 mmHg 62%
    15:00 +27°C° 0.1 mm 3 mps 708 mmHg 63%
    16:00 +27°C° 0.1 mm 3 mps 708 mmHg 64%
    17:00 +26°C° 0 mm 2 mps 708 mmHg 71%
    18:00 +24°C° 0 mm 2 mps 708 mmHg 78%
    19:00 +23°C° 0 mm 2 mps 708 mmHg 85%
    20:00 +22°C° 0 mm 1 mps 708 mmHg 88%
    21:00 +21°C° 0 mm 1 mps 708 mmHg 90%
    22:00 +21°C° 0 mm 1 mps 708 mmHg 92%
    23:00 +21°C° 0 mm 1 mps 708 mmHg 92%

    26 February, Tuesday

    Time Temperature Precipitation Wind Pressure Humidity
    00:00 +21°C° 0 mm 1 mps 708 mmHg 92%
    01:00 +19°C° 0 mm 2 mps 708 mmHg 93%
    02:00 +19°C° 0 mm 2 mps 708 mmHg 92%
    03:00 +20°C° 0 mm 2 mps 707 mmHg 92%
    04:00 +20°C° 0 mm 2 mps 707 mmHg 92%
    05:00 +20°C° 0 mm 2 mps 708 mmHg 91%
    06:00 +20°C° 0 mm 2 mps 708 mmHg 91%
    07:00 +20°C° 0 mm 2 mps 708 mmHg 90%
    08:00 +23°C° 0.1 mm 2 mps 709 mmHg 81%
    09:00 +25°C° 0.1 mm 2 mps 709 mmHg 73%
    10:00 +26°C° 0.1 mm 2 mps 710 mmHg 64%
    11:00 +27°C° 0.2 mm 2 mps 710 mmHg 61%
    12:00 +28°C° 0.2 mm 2 mps 709 mmHg 57%
    13:00 +29°C° 0.2 mm 2 mps 709 mmHg 54%
    14:00 +28°C° 0.3 mm 3 mps 709 mmHg 57%
    15:00 +27°C° 0.3 mm 3 mps 708 mmHg 61%
    16:00 +27°C° 0.3 mm 3 mps 708 mmHg 64%
    17:00 +25°C° 0.1 mm 3 mps 708 mmHg 70%
    18:00 +24°C° 0.1 mm 2 mps 708 mmHg 76%
    19:00 +23°C° 0.1 mm 2 mps 708 mmHg 82%
    20:00 +21°C° 0 mm 2 mps 708 mmHg 84%
    21:00 +21°C° 0 mm 2 mps 709 mmHg 86%
    22:00 +22°C° 0 mm 1 mps 709 mmHg 88%
    23:00 +21°C° 0 mm 1 mps 709 mmHg 89%
    Show more